TimePDT,TemperatureF,Dew PointF,Humidity,Sea Level PressureIn,VisibilityMPH,Wind Direction,Wind SpeedMPH,Gust SpeedMPH,PrecipitationIn,Events,Conditions,WindDirDegrees,DateUTC
12:06 AM,51.8,51.8,100,30.13,10.0,SE,3.5,-,N/A,,Overcast,140,2013-05-27 07:06:00
12:53 AM,52.0,51.1,97,30.14,10.0,SSE,4.6,-,0.00,,Overcast,150,2013-05-27 07:53:00
1:53 AM,53.1,50.0,89,30.13,10.0,SE,4.6,-,0.01,Rain,Light Rain,130,2013-05-27 08:53:00
2:45 AM,51.8,51.8,100,30.09,7.0,ESE,4.6,-,0.03,Rain,Light Rain,120,2013-05-27 09:45:00
2:53 AM,52.0,51.1,97,30.11,7.0,ESE,4.6,-,0.04,Rain,Light Rain,120,2013-05-27 09:53:00
3:53 AM,53.1,52.0,96,30.09,6.0,SE,5.8,-,0.05,Rain,Light Rain,130,2013-05-27 10:53:00
4:53 AM,53.1,52.0,96,30.08,6.0,SSE,5.8,-,0.11,Rain,Light Rain,150,2013-05-27 11:53:00
5:53 AM,52.0,51.1,97,30.06,8.0,SE,6.9,-,0.12,Rain,Light Rain,140,2013-05-27 12:53:00
6:53 AM,53.1,52.0,96,30.05,4.0,SE,6.9,-,0.07,Rain,Rain,140,2013-05-27 13:53:00
7:53 AM,54.0,52.0,93,30.04,4.0,SE,6.9,-,0.05,Rain,Light Rain,140,2013-05-27 14:53:00
8:17 AM,53.6,51.8,94,30.01,3.0,SE,9.2,-,0.02,Rain,Rain,140,2013-05-27 15:17:00
8:46 AM,53.6,53.6,100,30.01,4.0,SE,10.4,-,0.04,Rain,Light Rain,140,2013-05-27 15:46:00
8:53 AM,55.0,53.1,93,30.02,5.0,SSE,9.2,-,0.04,Rain,Light Rain,150,2013-05-27 15:53:00
9:30 AM,55.4,53.6,94,29.99,8.0,SE,10.4,17.3,0.01,Rain,Light Rain,140,2013-05-27 16:30:00
9:53 AM,55.9,53.1,90,30.01,10.0,SSE,6.9,-,0.02,Rain,Light Rain,160,2013-05-27 16:53:00
10:07 AM,55.4,53.6,94,29.98,7.0,SSE,9.2,-,0.00,Rain,Light Rain,150,2013-05-27 17:07:00
10:53 AM,57.0,55.0,93,30.00,9.0,SSE,10.4,-,0.02,Rain,Light Rain,160,2013-05-27 17:53:00
11:53 AM,57.9,55.0,90,29.99,7.0,South,12.7,23.0,0.01,Rain,Light Rain,190,2013-05-27 18:53:00
12:21 PM,57.2,55.4,94,29.98,2.5,South,13.8,-,0.02,Rain,Light Rain,180,2013-05-27 19:21:00
12:53 PM,57.0,55.9,96,30.00,2.0,South,16.1,21.9,0.05,Rain,Light Rain,180,2013-05-27 19:53:00
1:38 PM,57.2,55.4,94,29.99,2.0,South,13.8,-,0.02,Rain,Light Rain,180,2013-05-27 20:38:00
1:46 PM,57.2,55.4,94,29.99,1.0,South,12.7,-,0.04,Rain,Rain,180,2013-05-27 20:46:00
1:53 PM,57.0,57.0,100,30.00,1.5,South,12.7,-,0.04,Rain,Light Rain,180,2013-05-27 20:53:00
1:57 PM,57.2,55.4,94,29.98,3.0,South,11.5,-,0.00,Rain,Light Rain,170,2013-05-27 20:57:00
2:53 PM,59.0,57.0,93,30.00,3.0,South,6.9,-,0.00,Rain,Light Rain,170,2013-05-27 21:53:00
3:22 PM,57.2,57.2,100,29.98,2.5,South,11.5,-,0.01,Rain,Light Rain,180,2013-05-27 22:22:00
3:24 PM,59.0,57.2,94,29.98,3.0,South,9.2,-,0.01,Rain,Light Rain,180,2013-05-27 22:24:00
3:26 PM,59.0,57.2,94,29.98,4.0,South,8.1,-,0.01,Rain,Light Rain,190,2013-05-27 22:26:00
3:42 PM,59.0,57.2,94,29.99,2.5,South,10.4,-,0.02,Rain,Rain,180,2013-05-27 22:42:00
3:45 PM,59.0,57.2,94,29.99,1.8,South,10.4,-,0.03,Rain,Rain,180,2013-05-27 22:45:00
3:53 PM,59.0,57.9,96,30.00,1.0,South,10.4,-,0.05,Rain,Rain,170,2013-05-27 22:53:00
4:01 PM,59.0,57.2,94,29.99,2.5,SW,9.2,-,0.01,Rain,Light Rain,220,2013-05-27 23:01:00
4:18 PM,57.2,57.2,100,29.99,5.0,SSW,8.1,-,0.02,,Overcast,200,2013-05-27 23:18:00
4:34 PM,57.2,57.2,100,29.99,7.0,SW,8.1,-,0.02,,Overcast,220,2013-05-27 23:34:00
4:53 PM,57.0,55.9,96,30.01,10.0,SSW,8.1,-,0.02,,Overcast,210,2013-05-27 23:53:00
5:53 PM,57.9,55.9,93,29.99,10.0,Calm,Calm,-,0.00,Rain,Light Rain,0,2013-05-28 00:53:00
6:21 PM,55.4,55.4,100,29.97,7.0,SW,8.1,-,0.00,Rain,Light Rain,220,2013-05-28 01:21:00
6:35 PM,55.4,55.4,100,29.96,10.0,SSW,9.2,-,0.00,Rain,Light Rain,210,2013-05-28 01:35:00
6:53 PM,55.0,55.0,100,29.98,10.0,SW,9.2,-,0.00,Rain,Light Rain,220,2013-05-28 01:53:00
7:26 PM,55.4,55.4,100,29.96,9.0,SW,4.6,-,0.01,Rain,Light Rain,220,2013-05-28 02:26:00
7:53 PM,55.9,55.0,97,29.96,10.0,SSW,12.7,-,0.01,,Overcast,210,2013-05-28 02:53:00
8:06 PM,55.4,53.6,94,29.95,2.5,SW,8.1,-,0.01,Rain,Rain,230,2013-05-28 03:06:00
8:21 PM,53.6,53.6,100,29.95,4.0,SW,6.9,-,0.03,Rain,Light Rain,230,2013-05-28 03:21:00
8:53 PM,54.0,54.0,100,29.98,7.0,SW,12.7,-,0.06,,Overcast,230,2013-05-28 03:53:00
9:02 PM,53.6,53.6,100,29.97,2.5,WSW,12.7,-,0.00,Rain,Light Rain,240,2013-05-28 04:02:00
9:10 PM,53.6,53.6,100,29.97,1.5,WSW,11.5,-,0.00,,Overcast,240,2013-05-28 04:10:00
9:24 PM,53.6,53.6,100,29.97,0.5,SW,10.4,-,0.02,Fog-Rain,Light Rain,230,2013-05-28 04:24:00
9:33 PM,53.6,53.6,100,29.97,0.2,SW,9.2,-,0.02,Fog,Fog,230,2013-05-28 04:33:00
9:42 PM,53.6,53.6,100,29.97,0.5,SW,9.2,-,0.02,Fog-Rain,Light Rain,220,2013-05-28 04:42:00
9:53 PM,53.1,53.1,100,29.99,0.8,SSW,10.4,-,0.02,,Mist,210,2013-05-28 04:53:00
10:01 PM,53.6,53.6,100,29.97,1.8,SSW,10.4,-,N/A,,Overcast,200,2013-05-28 05:01:00
10:08 PM,53.6,53.6,100,29.98,3.0,SSW,11.5,-,N/A,,Overcast,210,2013-05-28 05:08:00
10:53 PM,53.1,53.1,100,29.99,6.0,SSW,6.9,-,0.01,,Overcast,200,2013-05-28 05:53:00
11:29 PM,53.6,53.6,100,29.97,1.8,SW,8.1,-,0.00,,Overcast,230,2013-05-28 06:29:00
11:46 PM,53.6,53.6,100,29.97,3.0,SW,8.1,-,0.00,,Overcast,220,2013-05-28 06:46:00
11:53 PM,53.1,53.1,100,29.99,2.5,SSW,9.2,-,0.00,,Overcast,210,2013-05-28 06:53:00